Skip Page Navigation
NASA JPL Caltech
NASA Logo - Jet Propulsion Laboratory + View the NASA Portal
+ Near-Earth Object (NEO) Program
Search JPL
JPL Home Earth Solar System Stars & Galaxies Technology
JPL Solar System Dynamics
BODIES ORBITS EPHEMERIDES TOOLS PHYSICAL DATA DISCOVERY FAQ SITE MAP
JPL Small-Body Database Browser
Search: [ help ]  
(2010 JA43)
Classification: Amor [NEO]          SPK-ID: 3520763
Ephemeris | Orbit Diagram | Orbital Elements | Physical Parameters ]

[ hide orbit diagram ]
Orbit Diagram
Note: Make sure you have Java enabled on your browser to see the applet. This applet is provided as a 3D orbit visualization tool. The applet was implemented using 2-body methods, and hence should not be used for determining accurate long-term trajectories (over several years or decades) or planetary encounter circumstances. For accurate long-term ephemerides, please instead use our Horizons system.
Orbit Viewer

Additional Notes: the orbits shown in the applet are color coded. The planets are white lines, and the asteroid/comet is a blue line. The bright white line indicates the portion of the orbit that is above the ecliptic plane, and the darker portion is below the ecliptic plane. Likewise for the asteroid/comet orbit, the light blue indicates the portion above the ecliptic plane, and the dark blue the portion below the ecliptic plane.

Orbit Viewer applet originally written and kindly provided by Osamu Ajiki (AstroArts), and further modified by Ron Baalke (JPL).


Orbital Elements at Epoch 2455322.5 (2010-May-06.0) TDB
Reference: JPL 3 (heliocentric ecliptic J2000)
 Element Value Uncertainty (1-sigma)   Units 
e .3743165770443874 0.11345  
a 1.628367056007312 0.39297 AU
q 1.018842273430809 0.062023 AU
i 35.47103168449303 5.6606 deg
node 293.1042907280681 2.1865 deg
peri 237.3552480124933 7.0146 deg
M 30.27735610551492 13.133 deg
tp 2455258.667429129883
(2010-Mar-03.16742913)
4.5809 JED
period 758.9739815180375
2.08
274.74
0.7522
d
yr
n .4743245602174103 0.1717 deg/d
Q 2.237891838583816 0.54007 AU
  Orbit Determination Parameters
   # obs. used (total)      21  
   data-arc span      3 days  
   first obs. used      2010-05-04  
   last obs. used      2010-05-07  
   planetary ephem.      DE405  
   SB-pert. ephem.      SB405-CPV-2  
   condition code      9  
   fit RMS      .80437  
   data source      ORB  
   producer      Otto Matic  
   solution date      2011-Sep-14 20:53:22  

Additional Information
 Earth MOID = .164426 AU 
 T_jup = 4.040 
[ show covariance matrix ]

Ephemeris | Orbit Diagram | Orbital Elements | Physical Parameters ]

Physical Parameter Table
Parameter Symbol Value Units Sigma Reference Notes
absolute magnitude H 20.866 mag .0093089 3 autocmod 2.5a
Ephemeris | Orbit Diagram | Orbital Elements | Physical Parameters ]
ABOUT SSD CREDITS/AWARDS PRIVACY/COPYRIGHT GLOSSARY LINKS
FirstGov 2013-May-21 06:53 UT
(server date/time)  
NASA Home Page
Site Manager:   Donald K. Yeomans
Webmaster  Alan B. Chamberlin